RYO45R ENTO-EVRA

Flight info

Callsign RYO45R
Flight time 1h 13m
Altitude 37000
Route VATEX P609 KSD DCT DEPEX DCT RASEL L199 MILTA Y130 LAPSA
Aircraft BBJ2/M-SDE2E3FGHIRWXY/LB1

Departure

Time 2026-05-05 07:10
Airport Sandefjord Airport, Torp (ENTO)

Arrival

Time 2026-05-05 08:23
Airport Riga International Airport (EVRA)
Time Latitude Longitude Altitude Speed Heading
2026-05-05 06:24 59.17889 10.25423 267 ft 0 kts 269°
2026-05-05 06:29 59.17889 10.25411 267 ft 0 kts 269°
2026-05-05 07:03 59.17888 10.25453 267 ft 4 kts 263°
2026-05-05 07:03 59.17892 10.25504 267 ft 4 kts 257°
2026-05-05 07:03 59.17900 10.25554 268 ft 4 kts 246°
2026-05-05 07:04 59.17905 10.25574 268 ft 1 kts 244°
2026-05-05 07:06 59.17889 10.25552 267 ft 9 kts 204°
2026-05-05 07:07 59.17810 10.25613 266 ft 14 kts 146°
2026-05-05 07:07 59.17733 10.25715 265 ft 14 kts 146°
2026-05-05 07:07 59.17644 10.25832 265 ft 17 kts 146°
2026-05-05 07:07 59.17524 10.25890 263 ft 20 kts 177°
2026-05-05 07:08 59.17405 10.25975 260 ft 15 kts 186°
2026-05-05 07:08 59.17397 10.25862 261 ft 9 kts 337°
2026-05-05 07:08 59.17457 10.25890 262 ft 9 kts
2026-05-05 07:08 59.17482 10.25890 262 ft 1 kts 358°
2026-05-05 07:09 59.17677 10.25892 266 ft 58 kts
2026-05-05 07:09 59.18232 10.25861 271 ft 102 kts 358°
2026-05-05 07:09 59.19125 10.25852 315 ft 149 kts 359°
2026-05-05 07:09 59.20188 10.25854 816 ft 156 kts 359°
2026-05-05 07:10 59.21295 10.25863 1466 ft 159 kts
2026-05-05 07:10 59.22408 10.25890 2120 ft 161 kts 359°
2026-05-05 07:10 59.23589 10.25862 2551 ft 178 kts 357°
2026-05-05 07:10 59.24861 10.25802 3141 ft 186 kts 356°
2026-05-05 07:11 59.26163 10.25751 3805 ft 188 kts 356°
2026-05-05 07:11 59.27495 10.25718 4341 ft 198 kts
2026-05-05 07:11 59.28827 10.26821 4529 ft 227 kts 44°
2026-05-05 07:11 59.29547 10.29719 4755 ft 255 kts 83°
2026-05-05 07:12 59.29201 10.33203 5106 ft 271 kts 115°
2026-05-05 07:12 59.28686 10.36753 5661 ft 276 kts 86°
2026-05-05 07:12 59.29229 10.40283 6384 ft 272 kts 59°
2026-05-05 07:12 59.30170 10.43512 7004 ft 276 kts 59°
2026-05-05 07:13 59.31077 10.46876 7666 ft 281 kts 62°
2026-05-05 07:13 59.31921 10.50346 8421 ft 283 kts 64°
2026-05-05 07:13 59.32716 10.53908 9087 ft 288 kts 65°
2026-05-05 07:13 59.33486 10.57562 9760 ft 293 kts 66°
2026-05-05 07:14 59.34249 10.61322 10279 ft 305 kts 67°
2026-05-05 07:14 59.35048 10.65344 10445 ft 328 kts 67°
2026-05-05 07:14 59.35869 10.69535 10903 ft 338 kts 67°
2026-05-05 07:14 59.36714 10.73887 11515 ft 345 kts 67°
2026-05-05 07:15 59.37566 10.78326 12130 ft 351 kts 70°
2026-05-05 07:15 59.37974 10.83091 12688 ft 361 kts 92°
2026-05-05 07:15 59.37747 10.88031 13290 ft 367 kts 98°
2026-05-05 07:15 59.37431 10.93062 13854 ft 376 kts 99°
2026-05-05 07:16 59.37092 10.98188 14436 ft 383 kts 99°
2026-05-05 07:16 59.36750 11.03428 15026 ft 391 kts 99°
2026-05-05 07:16 59.36410 11.08749 15626 ft 398 kts 99°
2026-05-05 07:16 59.36068 11.14201 16200 ft 405 kts 100°
2026-05-05 07:17 59.35726 11.19727 16720 ft 413 kts 100°
2026-05-05 07:17 59.35378 11.25379 17285 ft 420 kts 100°
2026-05-05 07:17 59.35025 11.31096 17848 ft 427 kts 101°
2026-05-05 07:17 59.34660 11.36926 18371 ft 434 kts 101°
2026-05-05 07:18 59.34290 11.42822 18909 ft 440 kts 101°
2026-05-05 07:18 59.33913 11.48799 19558 ft 442 kts 101°
2026-05-05 07:18 59.33533 11.54790 20158 ft 445 kts 101°
2026-05-05 07:18 59.33144 11.60841 20704 ft 449 kts 101°
2026-05-05 07:19 59.32751 11.66937 21252 ft 453 kts 101°
2026-05-05 07:19 59.32352 11.73083 21810 ft 456 kts 101°
2026-05-05 07:19 59.31948 11.79265 22314 ft 461 kts 101°
2026-05-05 07:19 59.31897 11.85582 22766 ft 471 kts 83°
2026-05-05 07:20 59.32487 11.91910 23306 ft 473 kts 79°
2026-05-05 07:20 59.33130 11.98245 23781 ft 476 kts 79°
2026-05-05 07:20 59.33736 12.04655 24225 ft 480 kts 81°
2026-05-05 07:20 59.34310 12.11116 24701 ft 483 kts 81°
2026-05-05 07:21 59.34868 12.17615 25173 ft 485 kts 82°
2026-05-05 07:21 59.35420 12.24153 25616 ft 488 kts 82°
2026-05-05 07:21 59.35973 12.30732 26079 ft 489 kts 82°
2026-05-05 07:21 59.36525 12.37314 26525 ft 491 kts 82°
2026-05-05 07:22 59.37081 12.43952 26924 ft 494 kts 82°
2026-05-05 07:22 59.37638 12.50616 27319 ft 497 kts 82°
2026-05-05 07:22 59.38195 12.57314 27754 ft 498 kts 82°
2026-05-05 07:22 59.38748 12.64021 28171 ft 499 kts 82°
2026-05-05 07:23 59.39300 12.70752 28524 ft 501 kts 82°
2026-05-05 07:23 59.39852 12.77525 28865 ft 504 kts 82°
2026-05-05 07:23 59.40402 12.84320 29220 ft 505 kts 82°
2026-05-05 07:23 59.40951 12.91146 29567 ft 507 kts 83°
2026-05-05 07:24 59.41498 12.98011 29880 ft 509 kts 83°
2026-05-05 07:24 59.42044 13.04903 30186 ft 511 kts 83°
2026-05-05 07:24 59.42581 13.11711 30506 ft 512 kts 83°
2026-05-05 07:24 59.43132 13.18734 30812 ft 514 kts 83°
2026-05-05 07:25 59.43642 13.25679 31091 ft 515 kts 86°
2026-05-05 07:25 59.43753 13.32608 31339 ft 513 kts 96°
2026-05-05 07:25 59.43396 13.39551 31605 ft 510 kts 105°
2026-05-05 07:25 59.42546 13.46273 31911 ft 505 kts 111°
2026-05-05 07:26 59.41571 13.52871 32275 ft 503 kts 112°
2026-05-05 07:26 59.40579 13.59457 32605 ft 502 kts 112°
2026-05-05 07:26 59.39591 13.66039 32919 ft 502 kts 111°
2026-05-05 07:26 59.38617 13.72622 33223 ft 502 kts 111°
2026-05-05 07:27 59.37653 13.79210 33508 ft 502 kts 111°
2026-05-05 07:27 59.36693 13.85802 33797 ft 502 kts 111°
2026-05-05 07:27 59.35741 13.92362 34122 ft 500 kts 111°
2026-05-05 07:27 59.34787 13.98918 34410 ft 500 kts 111°
2026-05-05 07:28 59.33828 14.05472 34660 ft 500 kts 111°
2026-05-05 07:28 59.32868 14.12014 34962 ft 498 kts 111°
2026-05-05 07:28 59.31910 14.18513 35299 ft 496 kts 111°
2026-05-05 07:28 59.30948 14.24994 35586 ft 495 kts 111°
2026-05-05 07:29 59.29984 14.31461 35816 ft 495 kts 111°
2026-05-05 07:29 59.29017 14.37921 36053 ft 495 kts 111°
2026-05-05 07:29 59.28049 14.44365 36320 ft 493 kts 111°
2026-05-05 07:29 59.27092 14.50712 36549 ft 492 kts 111°
2026-05-05 07:30 59.26120 14.57137 36773 ft 490 kts 111°
2026-05-05 07:30 59.23241 14.76044 36837 ft 480 kts 111°
2026-05-05 07:31 59.21320 14.88531 36840 ft 481 kts 111°
2026-05-05 07:31 59.19381 15.01049 36841 ft 482 kts 111°
2026-05-05 07:32 59.17206 15.13393 36838 ft 481 kts 115°
2026-05-05 07:32 59.14830 15.25595 36838 ft 482 kts 116°
2026-05-05 07:33 59.12441 15.37800 36833 ft 483 kts 115°
2026-05-05 07:33 59.10069 15.50033 36832 ft 483 kts 115°
2026-05-05 07:34 59.07699 15.62281 36831 ft 484 kts 115°
2026-05-05 07:34 59.05319 15.74510 36834 ft 483 kts 115°
2026-05-05 07:35 59.02947 15.86618 36833 ft 482 kts 115°
2026-05-05 07:35 59.00549 15.98774 36835 ft 481 kts 116°
2026-05-05 07:36 58.98147 16.10878 36831 ft 480 kts 116°
2026-05-05 07:36 58.95743 16.22925 36838 ft 479 kts 116°
2026-05-05 07:37 58.93327 16.34944 36831 ft 478 kts 116°
2026-05-05 07:37 58.90906 16.46918 36809 ft 477 kts 116°
2026-05-05 07:38 58.88479 16.58854 36818 ft 476 kts 116°
2026-05-05 07:38 58.86044 16.70757 36807 ft 476 kts 116°
2026-05-05 07:39 58.83600 16.82635 36809 ft 476 kts 116°
2026-05-05 07:39 58.81148 16.94491 36803 ft 476 kts 117°
2026-05-05 07:40 58.78700 17.06250 36808 ft 475 kts 117°
2026-05-05 07:40 58.76228 17.18053 36805 ft 475 kts 117°
2026-05-05 07:41 58.73744 17.29851 36806 ft 475 kts 117°
2026-05-05 07:41 58.71250 17.41628 36804 ft 475 kts 117°
2026-05-05 07:42 58.68744 17.53395 36806 ft 475 kts 117°
2026-05-05 07:42 58.66233 17.65126 36814 ft 474 kts 117°
2026-05-05 07:43 58.63711 17.76825 36813 ft 474 kts 117°
2026-05-05 07:43 58.61176 17.88523 36813 ft 474 kts 117°
2026-05-05 07:44 58.58634 18.00191 36817 ft 474 kts 117°
2026-05-05 07:44 58.56086 18.11821 36830 ft 473 kts 117°
2026-05-05 07:45 58.53526 18.23437 36817 ft 473 kts 118°
2026-05-05 07:45 58.50961 18.35018 36831 ft 473 kts 118°
2026-05-05 07:46 58.48405 18.46494 36833 ft 472 kts 118°
2026-05-05 07:46 58.45822 18.58032 36832 ft 472 kts 118°
2026-05-05 07:47 58.43229 18.69542 36834 ft 472 kts 118°
2026-05-05 07:47 58.40624 18.81046 36831 ft 472 kts 118°
2026-05-05 07:48 58.38013 18.92508 36838 ft 471 kts 118°
2026-05-05 07:48 58.35393 19.03957 36832 ft 471 kts 118°
2026-05-05 07:49 58.32762 19.15391 36838 ft 471 kts 118°
2026-05-05 07:49 58.30124 19.26792 36832 ft 471 kts 118°
2026-05-05 07:50 58.27478 19.38168 36834 ft 471 kts 118°
2026-05-05 07:50 58.24822 19.49524 36843 ft 470 kts 119°
2026-05-05 07:51 58.22611 19.58937 36836 ft 468 kts 119°
2026-05-05 07:51 58.19542 19.71938 36830 ft 461 kts 119°
2026-05-05 07:52 58.16910 19.83017 36531 ft 461 kts 119°
2026-05-05 07:52 58.15600 19.88514 36238 ft 455 kts 119°
2026-05-05 07:52 58.14724 19.92185 35975 ft 453 kts 119°
2026-05-05 07:53 58.13429 19.97597 35600 ft 449 kts 120°
2026-05-05 07:53 58.12142 20.02957 35221 ft 446 kts 120°
2026-05-05 07:53 58.10862 20.08280 34839 ft 443 kts 120°
2026-05-05 07:53 58.09587 20.13565 34451 ft 441 kts 120°
2026-05-05 07:54 58.08315 20.18824 34070 ft 438 kts 120°
2026-05-05 07:54 58.07051 20.24042 33691 ft 435 kts 120°
2026-05-05 07:54 58.05794 20.29220 33306 ft 433 kts 120°
2026-05-05 07:54 58.04540 20.34371 32929 ft 430 kts 120°
2026-05-05 07:55 58.03293 20.39483 32555 ft 428 kts 121°
2026-05-05 07:55 58.01941 20.44439 32175 ft 422 kts 126°
2026-05-05 07:55 58.00468 20.49115 31811 ft 418 kts 128°
2026-05-05 07:55 57.98949 20.53755 31448 ft 415 kts 128°
2026-05-05 07:56 57.97427 20.58376 31083 ft 413 kts 128°
2026-05-05 07:56 57.95918 20.62974 30720 ft 411 kts 128°
2026-05-05 07:56 57.94428 20.67541 30363 ft 409 kts 128°
2026-05-05 07:56 57.92944 20.72101 30012 ft 407 kts 127°
2026-05-05 07:57 57.91474 20.76633 29654 ft 405 kts 128°
2026-05-05 07:57 57.90012 20.81142 29300 ft 403 kts 128°
2026-05-05 07:57 57.88557 20.85620 28934 ft 400 kts 128°
2026-05-05 07:57 57.87107 20.90075 28570 ft 398 kts 128°
2026-05-05 07:58 57.85666 20.94488 28207 ft 396 kts 128°
2026-05-05 07:58 57.84228 20.98883 27845 ft 394 kts 128°
2026-05-05 07:58 57.82796 21.03249 27482 ft 392 kts 128°
2026-05-05 07:58 57.81370 21.07591 27122 ft 390 kts 128°
2026-05-05 07:59 57.79949 21.11911 26764 ft 388 kts 128°
2026-05-05 07:59 57.78536 21.16197 26396 ft 386 kts 128°
2026-05-05 07:59 57.77127 21.20464 26043 ft 384 kts 128°
2026-05-05 07:59 57.75723 21.24709 25701 ft 382 kts 128°
2026-05-05 08:00 57.74325 21.28935 25341 ft 380 kts 128°
2026-05-05 08:00 57.72935 21.33125 24996 ft 378 kts 128°
2026-05-05 08:00 57.71553 21.37284 24657 ft 376 kts 128°
2026-05-05 08:00 57.70171 21.41433 24304 ft 374 kts 128°
2026-05-05 08:01 57.68798 21.45557 23959 ft 373 kts 127°
2026-05-05 08:01 57.67504 21.49750 23609 ft 373 kts 125°
2026-05-05 08:01 57.66265 21.54005 23251 ft 372 kts 124°
2026-05-05 08:01 57.65046 21.58267 22906 ft 371 kts 124°
2026-05-05 08:02 57.63851 21.62444 22575 ft 369 kts 124°
2026-05-05 08:02 57.62639 21.66649 22232 ft 367 kts 124°
2026-05-05 08:02 57.61429 21.70820 21897 ft 365 kts 124°
2026-05-05 08:02 57.60218 21.74973 21561 ft 363 kts 124°
2026-05-05 08:03 57.59009 21.79102 21228 ft 361 kts 125°
2026-05-05 08:03 57.57804 21.83204 20893 ft 360 kts 125°
2026-05-05 08:03 57.56605 21.87275 20572 ft 358 kts 125°
2026-05-05 08:03 57.55409 21.91331 20239 ft 356 kts 125°
2026-05-05 08:04 57.54219 21.95354 19909 ft 354 kts 125°
2026-05-05 08:04 57.53032 21.99361 19580 ft 352 kts 125°
2026-05-05 08:04 57.51853 22.03340 19257 ft 351 kts 125°
2026-05-05 08:04 57.50675 22.07308 18930 ft 350 kts 125°
2026-05-05 08:05 57.49500 22.11259 18609 ft 348 kts 125°
2026-05-05 08:05 57.48328 22.15188 18286 ft 347 kts 125°
2026-05-05 08:05 57.47164 22.19088 17964 ft 345 kts 125°
2026-05-05 08:05 57.46001 22.22977 17645 ft 343 kts 125°
2026-05-05 08:06 57.44843 22.26845 17324 ft 342 kts 125°
2026-05-05 08:06 57.43690 22.30693 17006 ft 340 kts 125°
2026-05-05 08:06 57.42541 22.34517 16685 ft 339 kts 125°
2026-05-05 08:06 57.41392 22.38335 16373 ft 338 kts 125°
2026-05-05 08:07 57.40250 22.42122 16051 ft 336 kts 125°
2026-05-05 08:07 57.39107 22.45895 15738 ft 335 kts 125°
2026-05-05 08:07 57.37969 22.49644 15423 ft 333 kts 125°
2026-05-05 08:07 57.36832 22.53391 15109 ft 332 kts 125°
2026-05-05 08:08 57.35707 22.57091 14800 ft 330 kts 125°
2026-05-05 08:08 57.34577 22.60798 14484 ft 329 kts 125°
2026-05-05 08:08 57.33276 22.64182 14132 ft 317 kts 145°
2026-05-05 08:08 57.31550 22.66615 13800 ft 310 kts 153°
2026-05-05 08:09 57.29774 22.68855 13477 ft 308 kts 153°
2026-05-05 08:09 57.28022 22.71035 13171 ft 307 kts 153°
2026-05-05 08:09 57.26263 22.73238 12869 ft 305 kts 153°
2026-05-05 08:09 57.24509 22.75443 12564 ft 304 kts 153°
2026-05-05 08:10 57.22771 22.77641 12264 ft 303 kts 153°
2026-05-05 08:10 57.21036 22.79836 11959 ft 301 kts 153°
2026-05-05 08:10 57.19314 22.82019 11661 ft 300 kts 153°
2026-05-05 08:10 57.17602 22.84192 11352 ft 299 kts 152°
2026-05-05 08:11 57.15893 22.86356 11069 ft 297 kts 152°
2026-05-05 08:11 57.14192 22.88508 10768 ft 296 kts 152°
2026-05-05 08:11 57.12500 22.90645 10488 ft 294 kts 152°
2026-05-05 08:11 57.10820 22.92765 10201 ft 293 kts 152°
2026-05-05 08:12 57.09146 22.94874 9950 ft 290 kts 152°
2026-05-05 08:12 57.07507 22.96945 9801 ft 284 kts 151°
2026-05-05 08:12 57.05878 22.98992 9503 ft 283 kts 151°
2026-05-05 08:12 57.04257 23.01026 9229 ft 281 kts 151°
2026-05-05 08:13 57.02653 23.03055 8952 ft 281 kts 148°
2026-05-05 08:13 57.01379 23.05808 8655 ft 290 kts 118°
2026-05-05 08:13 57.00854 23.09373 8428 ft 291 kts 99°
2026-05-05 08:13 57.00650 23.13056 8154 ft 290 kts 96°
2026-05-05 08:14 57.00480 23.16738 7870 ft 290 kts 96°
2026-05-05 08:14 57.00306 23.20369 7589 ft 290 kts 97°
2026-05-05 08:14 57.00114 23.24093 7307 ft 289 kts 97°
2026-05-05 08:14 56.99916 23.27754 7023 ft 289 kts 97°
2026-05-05 08:15 56.99716 23.31358 6850 ft 285 kts 97°
2026-05-05 08:15 56.99518 23.34924 6705 ft 278 kts 97°
2026-05-05 08:15 56.99451 23.38466 6437 ft 278 kts 91°
2026-05-05 08:15 56.99484 23.42005 6197 ft 277 kts 90°
2026-05-05 08:16 56.99530 23.45527 5928 ft 276 kts 90°
2026-05-05 08:16 56.99571 23.49042 5667 ft 275 kts 90°
2026-05-05 08:16 56.99601 23.52537 5423 ft 275 kts 90°
2026-05-05 08:16 56.99625 23.56025 5193 ft 269 kts 90°
2026-05-05 08:17 56.99644 23.59379 5056 ft 256 kts 91°
2026-05-05 08:17 56.99660 23.62549 5005 ft 240 kts 91°
2026-05-05 08:17 56.99672 23.65489 5004 ft 226 kts 91°
2026-05-05 08:17 56.99855 23.68388 4749 ft 230 kts 76°
2026-05-05 08:18 57.00278 23.71185 4480 ft 225 kts 73°
2026-05-05 08:18 57.00711 23.73900 4173 ft 219 kts 74°
2026-05-05 08:18 57.01126 23.76570 3876 ft 215 kts 75°
2026-05-05 08:18 57.01517 23.79170 3575 ft 209 kts 75°
2026-05-05 08:19 57.01892 23.81714 3295 ft 204 kts 75°
2026-05-05 08:19 57.02253 23.84184 3021 ft 198 kts 76°
2026-05-05 08:19 57.02603 23.86590 2756 ft 192 kts 76°
2026-05-05 08:19 57.02919 23.88921 2499 ft 185 kts 82°
2026-05-05 08:20 57.02974 23.91213 2251 ft 176 kts 99°
2026-05-05 08:20 57.02681 23.93347 1872 ft 171 kts 117°
2026-05-05 08:20 57.02108 23.95059 1739 ft 152 kts 134°
2026-05-05 08:20 57.01349 23.96407 1614 ft 154 kts 146°
2026-05-05 08:21 57.00459 23.97412 1432 ft 150 kts 158°
2026-05-05 08:21 56.99464 23.98040 1263 ft 149 kts 169°
2026-05-05 08:21 56.98455 23.98057 1062 ft 146 kts 187°
2026-05-05 08:21 56.97443 23.97945 873 ft 145 kts 186°
2026-05-05 08:22 56.96430 23.97788 692 ft 147 kts 186°
2026-05-05 08:22 56.95407 23.97628 470 ft 148 kts 187°
2026-05-05 08:22 56.94364 23.97438 274 ft 153 kts 185°
2026-05-05 08:22 56.93323 23.97285 92 ft 146 kts 186°
2026-05-05 08:23 56.92371 23.97125 41 ft 112 kts 186°
2026-05-05 08:23 56.91967 23.97064 42 ft 21 kts 185°
2026-05-05 08:23 56.91826 23.97122 41 ft 21 kts 156°
2026-05-05 08:23 56.91733 23.97224 44 ft 13 kts 129°
2026-05-05 08:24 56.91721 23.97374 43 ft 13 kts 52°
2026-05-05 08:24 56.91803 23.97415 42 ft 12 kts
2026-05-05 08:24 56.91888 23.97429 43 ft 12 kts
2026-05-05 08:24 56.91970 23.97442 41 ft 12 kts
2026-05-05 08:25 56.92051 23.97449 43 ft 11 kts
2026-05-05 08:25 56.92126 23.97475 41 ft 11 kts 43°
2026-05-05 08:25 56.92137 23.97610 40 ft 11 kts 82°
2026-05-05 08:25 56.92186 23.97661 43 ft 7 kts
2026-05-05 08:26 56.92210 23.97667 43 ft 2 kts